Wind_Speed
19 18 18 18 19 17 17 18 17 17 16 17 16 15 15 14 13 12 12 11 10 10 10 10 9 10 10 11 12 13 13 13 13 14 13 13 13 12 12 12 11 11 11 11 10 10 9 10 10
18 18 18 19 18 16 17 18 18 17 16 16 15 15 14 14 13 12 12 11 10 9 9 9 10 10 10 11 11 12 12 12 13 13 13 13 12 12 11 11 11 11 11 10 10 10 9 9 10
17 17 18 18 15 15 16 17 17 17 16 16 15 15 14 13 13 12 11 11 10 9 8 9 9 9 9 10 11 11 12 12 12 12 12 12 12 12 12 11 11 11 10 10 9 9 9 9 9
16 17 17 16 15 15 15 16 17 18 17 16 15 15 14 14 13 12 11 10 9 8 8 8 8 8 9 10 10 10 11 11 12 12 12 12 12 12 11 11 10 10 10 10 9 8 8 9 9
15 16 15 14 15 15 16 16 17 18 17 16 15 15 15 14 13 12 11 10 9 8 7 7 7 7 8 8 9 9 10 11 11 11 11 11 11 11 10 10 9 9 9 9 8 8 8 9 9
14 15 12 13 14 15 16 16 17 17 17 16 16 16 15 15 14 12 11 10 9 7 6 6 6 7 7 8 8 8 9 9 10 10 10 10 10 10 10 9 9 9 9 8 8 8 8 9 9
13 12 12 13 14 15 15 16 17 17 17 17 16 16 15 15 14 12 11 10 8 7 6 5 6 7 6 7 7 7 8 8 8 8 9 9 9 9 9 9 8 9 9 9 9 9 9 8 9
12 11 10 11 13 13 14 15 17 17 17 16 16 16 15 15 14 13 12 10 8 7 6 6 5 5 5 6 6 6 7 8 8 8 8 8 8 8 8 8 8 8 8 8 8 8 8 8 9
11 10 8 9 11 11 12 14 16 16 16 17 17 16 15 15 14 12 11 10 8 7 6 5 5 4 4 5 6 6 7 7 7 7 7 7 7 7 8 8 8 8 8 8 8 7 8 8 8
10 8 8 9 10 11 12 13 14 15 16 16 16 16 15 15 14 13 11 10 8 6 5 5 5 4 4 5 5 6 6 7 7 7 7 6 7 7 7 7 8 8 8 8 7 7 7 7 7
8 8 8 9 10 11 12 12 13 14 15 15 15 15 15 14 14 13 12 10 8 7 5 5 4 4 4 5 5 5 5 5 6 6 6 7 6 6 6 7 7 7 7 7 7 7 6 6 6
6 6 7 8 9 10 11 11 11 13 13 13 14 14 14 14 14 13 12 10 9 8 7 6 5 5 5 5 5 5 5 5 5 5 6 6 6 6 6 6 6 6 6 5 5 6 6 5 5
4 4 5 6 8 8 9 10 10 11 12 12 12 12 12 13 13 13 12 10 9 8 7 6 5 5 5 5 5 5 5 5 4 4 4 5 6 6 6 6 6 5 5 5 4 4 4 5 5
3 3 4 5 6 7 7 8 9 10 11 12 11 12 12 12 12 12 11 10 9 8 7 6 6 5 5 5 4 5 5 5 5 4 5 5 5 5 5 5 5 5 4 4 3 3 3 4 3
2 2 2 3 4 5 5 7 7 9 10 11 11 11 11 11 11 11 11 9 9 8 7 6 5 5 4 4 4 4 4 4 4 4 4 4 4 4 4 4 4 3 3 3 2 3 2 2 2
2 2 1 1 2 3 4 4 5 6 8 10 10 10 10 11 11 11 10 9 8 8 7 6 5 5 4 4 3 2 2 2 2 2 3 3 3 3 3 2 2 1 1 2 2 2 2 1 1
3 3 3 2 1 1 2 2 3 5 7 8 9 9 10 10 11 11 11 9 8 7 6 5 5 4 4 3 2 2 2 1 0 0 1 1 1 2 2 1 1 1 1 1 1 1 2 2 2
6 4 4 3 2 2 1 1 3 4 5 6 7 8 9 10 11 11 11 11 9 7 6 5 4 4 3 3 3 2 2 2 1 1 1 0 1 1 1 1 1 1 1 2 2 2 3 3 4
8 6 6 4 3 3 1 2 3 4 5 5 6 7 9 10 10 11 11 10 10 8 6 5 5 4 3 3 3 3 3 3 2 2 2 2 2 3 3 2 2 3 2 3 3 4 4 5 5
9 7 7 6 4 4 2 3 3 4 4 5 6 7 9 10 10 10 10 10 9 9 7 5 4 4 4 4 4 4 4 3 3 3 3 3 3 4 4 5 4 4 4 5 6 6 7 7 7
11 9 9 7 5 4 2 3 4 4 4 4 6 7 9 10 11 11 11 10 10 9 8 6 6 5 5 5 5 5 5 4 4 4 4 5 5 5 6 6 6 6 7 7 8 8 8 9 9
13 11 11 9 7 6 3 4 6 5 5 5 6 7 8 9 11 12 13 11 11 10 9 7 7 6 6 7 6 6 6 6 6 6 6 6 6 6 6 7 7 8 9 9 9 10 10 11 11
15 13 12 11 9 8 6 4 6 6 6 7 7 7 8 9 11 12 13 12 11 11 10 9 8 8 7 7 7 7 7 7 7 7 7 7 6 7 7 7 8 8 9 9 10 10 11 12 13
17 15 13 12 11 10 8 6 6 6 6 7 8 8 8 9 10 12 12 12 11 11 11 9 9 9 8 8 8 7 7 7 8 8 8 8 8 8 8 8 9 9 9 10 11 12 13 13 14
18 16 14 13 13 12 9 7 8 7 6 7 7 8 8 9 10 11 12 12 12 12 11 10 10 9 8 8 8 8 8 9 9 9 9 9 9 9 10 10 10 10 11 11 12 13 13 13 14
19 18 16 14 13 12 12 10 8 7 7 7 7 8 9 9 10 11 12 12 12 11 11 10 10 9 8 8 8 9 9 10 10 10 10 9 9 10 10 10 11 11 11 11 12 13 13 13 13
22 20 18 16 15 13 13 11 9 8 8 7 7 8 9 10 10 11 12 12 11 11 11 10 9 9 9 9 8 9 9 9 9 9 9 9 9 9 9 9 10 10 11 11 12 12 12 12 12
23 21 20 18 17 14 14 12 10 10 9 8 8 9 9 10 11 11 12 12 11 11 11 10 10 9 9 9 9 9 9 9 8 9 9 9 9 9 9 9 10 10 11 12 11 11 11 11 12
25 23 21 20 19 15 13 13 12 11 10 10 10 10 10 10 11 11 12 11 11 10 11 10 10 9 9 10 9 9 9 8 8 9 9 9 9 8 9 9 9 10 10 11 11 10 11 11 12
27 25 23 21 20 17 14 14 13 11 11 11 12 11 11 11 11 11 11 11 10 10 11 10 10 10 9 9 9 9 9 9 9 9 8 8 8 8 9 9 10 10 10 10 11 11 11 12 12
Wind_Direction
71 69 69 70 71 72 72 72 72 72 74 74 73 72 72 74 76 78 79 81 82 86 91 91 92 92 92 91 90 92 89 89 91 90 90 90 91 92 93 95 96 99 104 102 99 99 101 104 104
69 67 68 69 73 71 70 71 72 71 72 73 72 71 70 72 73 74 75 78 79 84 90 92 96 95 95 95 94 94 92 91 91 91 91 91 92 90 91 90 89 91 97 99 101 101 100 101 102
68 65 66 67 71 70 70 70 70 70 70 70 70 70 69 69 68 68 70 74 76 80 88 92 97 98 97 97 96 95 95 94 93 93 94 93 93 90 88 87 88 91 96 101 104 106 104 102 103
67 64 63 65 65 66 67 68 69 68 67 67 68 67 66 66 62 62 66 70 73 77 84 92 97 97 97 99 99 97 95 96 97 97 99 97 95 91 88 87 89 90 95 100 103 104 108 105 104
66 64 62 60 61 61 63 65 66 67 66 63 63 63 62 62 60 59 63 66 70 76 83 92 98 97 98 99 101 100 97 98 100 100 101 99 97 93 90 88 90 91 95 99 101 104 106 107 107
69 69 67 61 60 62 62 62 63 64 63 61 60 60 60 58 56 55 59 64 71 76 80 87 96 102 99 99 102 104 102 102 102 102 103 102 100 98 95 91 91 95 97 99 101 103 106 108 106
76 76 68 63 61 62 61 60 61 62 59 58 57 58 58 56 54 53 57 62 69 76 80 86 99 103 101 98 102 105 104 102 102 102 105 105 102 99 96 94 93 95 97 101 104 105 106 109 108
76 72 62 61 62 61 60 60 60 60 59 57 55 55 55 55 52 52 53 57 63 71 78 85 95 99 98 97 101 106 107 103 103 105 108 108 104 99 98 98 97 98 99 101 105 110 112 111 110
76 74 68 65 64 61 60 59 57 59 58 56 55 55 54 53 50 50 50 52 57 64 73 84 91 94 87 89 100 110 108 104 103 103 104 107 106 101 98 99 98 100 101 104 105 109 113 112 111
81 84 72 66 66 65 61 57 55 56 56 54 53 52 51 50 49 48 48 51 54 57 63 68 84 87 76 80 93 103 110 106 102 101 101 102 107 100 99 102 102 104 105 105 108 111 113 114 113
86 83 69 67 67 63 60 56 54 53 54 52 50 49 49 48 46 46 47 49 50 50 54 60 72 78 80 81 88 97 105 110 106 101 101 100 101 103 103 103 105 107 108 107 107 110 115 115 116
92 79 67 68 65 61 60 57 52 50 50 46 45 45 44 45 45 44 43 44 45 47 52 56 68 77 83 89 85 85 89 103 107 102 97 96 102 108 106 107 109 110 109 110 111 111 112 113 116
101 87 72 69 66 63 63 57 50 47 44 43 42 42 41 42 42 40 40 42 43 46 49 52 61 72 80 82 87 83 83 81 91 99 95 99 106 106 106 109 109 108 109 112 116 113 113 111 109
122 104 82 73 67 67 66 58 49 43 38 39 40 39 38 38 39 38 38 41 41 42 45 51 58 65 71 81 88 85 82 75 78 91 98 103 107 105 103 103 104 106 108 113 116 117 121 125 122
150 121 104 80 69 73 65 51 45 39 33 34 35 35 34 34 33 33 33 35 34 35 39 49 55 58 69 77 84 80 76 74 71 85 92 94 99 102 102 99 106 104 104 117 129 133 132 144 149
186 162 194 174 92 80 70 45 34 33 28 28 28 29 29 27 26 25 24 26 24 26 33 43 53 57 66 71 77 73 70 72 70 88 94 90 87 90 102 100 98 109 109 128 162 180 179 196 221
218 211 214 212 173 113 82 51 22 18 21 23 22 22 21 20 18 17 16 15 15 17 24 34 45 49 53 51 48 42 44 35 40 81 93 79 61 70 73 56 42 14 198 193 208 219 231 242 267
222 220 232 236 207 166 113 2 345 355 5 16 15 12 10 7 8 7 7 10 8 5 8 20 30 30 33 35 30 18 5 353 317 309 318 312 296 319 341 344 357 343 279 249 258 288 270 265 276
216 219 235 240 224 204 219 293 326 342 352 1 4 3 360 358 359 358 359 5 4 0 358 4 9 7 5 7 1 343 340 343 331 311 303 302 287 290 292 296 320 318 315 288 282 290 291 281 281
221 227 237 237 226 220 242 281 304 328 342 349 353 357 356 355 357 353 351 353 355 356 353 351 350 349 339 340 338 329 325 332 318 307 295 293 298 292 284 284 292 298 295 288 283 285 286 285 284
225 230 239 242 238 234 253 280 295 305 318 329 339 346 350 350 350 351 349 348 347 344 343 341 335 330 330 325 321 315 310 311 307 295 286 286 290 291 286 283 284 287 290 287 282 282 283 284 285
229 230 237 241 234 247 233 262 284 289 296 310 321 329 336 338 339 341 343 344 345 339 333 327 327 320 317 316 315 308 305 300 294 290 285 286 290 294 289 286 289 290 290 290 286 283 282 284 287
230 232 236 239 236 240 243 234 272 280 288 300 308 316 319 327 333 335 338 341 340 337 332 324 318 310 309 307 306 304 300 296 291 288 285 282 284 287 286 287 293 292 291 293 293 290 287 285 285
229 232 236 238 238 241 242 237 258 275 283 295 302 309 309 318 327 332 334 336 336 332 328 321 318 312 305 302 303 302 302 299 295 289 285 281 283 285 285 286 287 289 290 291 293 294 292 287 285
228 228 232 234 236 241 245 246 250 268 280 289 295 301 307 313 321 328 330 331 332 332 328 324 321 318 313 307 302 298 299 297 293 289 287 285 283 284 286 284 286 286 287 291 296 296 295 289 287
228 227 228 229 236 244 249 247 254 265 275 284 290 293 302 307 313 320 325 326 328 327 326 326 327 324 318 313 306 299 299 297 294 290 287 286 286 288 288 286 286 287 292 294 296 297 295 291 290
228 227 228 232 235 239 249 251 253 260 267 278 290 293 299 303 305 311 317 319 321 324 325 325 324 323 320 320 315 308 302 298 292 292 291 286 287 290 292 291 290 293 294 296 298 299 299 293 292
229 228 229 229 236 239 249 250 249 255 263 274 286 290 299 302 306 308 310 315 315 317 321 323 322 319 318 314 313 311 303 300 293 293 296 292 289 290 291 292 293 297 301 303 302 303 302 299 296
229 230 231 231 234 236 246 253 251 251 259 269 279 285 295 303 309 311 313 314 314 315 319 321 320 317 317 315 313 314 310 307 303 297 294 296 294 291 292 294 294 299 302 306 307 307 304 302 301
229 231 233 233 237 237 237 252 252 249 255 264 271 278 287 297 305 309 312 314 312 313 317 320 319 317 317 315 312 312 313 308 307 298 295 296 297 295 296 294 289 294 299 304 308 308 307 308 307
Height
5917 5916 5916 5916 5917 5916 5913 5912 5910 5909 5908 5906 5905 5904 5903 5903 5903 5904 5900 5899 5899 5898 5898 5898 5897 5897 5896 5895 5895 5894 5894 5894 5893 5893 5893 5892 5892 5892 5892 5892 5892 5892 5892 5892 5892 5893 5893 5893 5893
5919 5919 5919 5919 5920 5918 5916 5914 5912 5911 5910 5908 5907 5906 5905 5904 5903 5902 5901 5900 5900 5900 5899 5899 5899 5898 5898 5897 5897 5896 5896 5895 5895 5895 5894 5894 5894 5894 5894 5894 5894 5893 5894 5894 5894 5894 5895 5895 5895
5921 5921 5922 5923 5922 5920 5919 5916 5914 5912 5911 5910 5909 5908 5907 5906 5905 5904 5903 5902 5902 5901 5901 5901 5900 5900 5899 5899 5898 5898 5897 5897 5897 5896 5896 5896 5896 5896 5896 5895 5895 5895 5895 5896 5896 5896 5896 5896 5896
5924 5924 5925 5926 5923 5922 5920 5918 5916 5914 5913 5912 5911 5910 5908 5907 5907 5906 5904 5904 5903 5903 5902 5902 5902 5902 5901 5900 5900 5900 5899 5899 5898 5898 5898 5898 5898 5897 5897 5897 5897 5897 5897 5897 5897 5897 5897 5897 5898
5926 5928 5929 5927 5925 5924 5922 5920 5918 5916 5915 5914 5913 5911 5910 5909 5908 5907 5906 5905 5905 5904 5904 5904 5903 5903 5902 5902 5901 5901 5901 5900 5900 5900 5900 5899 5899 5899 5899 5899 5899 5899 5898 5898 5898 5898 5898 5898 5899
5930 5931 5932 5929 5928 5926 5924 5922 5920 5918 5917 5915 5914 5913 5912 5910 5909 5909 5907 5907 5906 5905 5905 5905 5904 5904 5904 5903 5903 5902 5902 5902 5901 5901 5901 5901 5901 5901 5900 5900 5900 5900 5900 5899 5900 5900 5900 5900 5900
5933 5934 5933 5932 5930 5928 5927 5924 5922 5920 5919 5918 5916 5915 5913 5912 5911 5910 5909 5908 5907 5907 5906 5906 5905 5905 5905 5904 5904 5903 5903 5903 5903 5903 5902 5902 5902 5902 5902 5902 5902 5901 5901 5901 5901 5901 5901 5902 5902
5934 5936 5935 5933 5932 5930 5929 5926 5924 5923 5921 5920 5918 5917 5916 5914 5913 5912 5910 5909 5909 5908 5908 5907 5907 5906 5906 5905 5905 5905 5904 5904 5904 5904 5904 5904 5903 5903 5903 5903 5903 5903 5903 5903 5903 5903 5903 5903 5903
5935 5939 5937 5935 5934 5932 5930 5928 5927 5925 5923 5922 5920 5919 5918 5916 5914 5913 5912 5911 5910 5909 5909 5908 5908 5907 5907 5906 5905 5905 5905 5905 5905 5904 5904 5904 5905 5905 5904 5904 5904 5904 5904 5904 5904 5904 5904 5905 5905
5937 5940 5938 5936 5935 5933 5932 5930 5929 5927 5926 5924 5923 5921 5919 5918 5916 5915 5914 5913 5912 5911 5910 5909 5909 5908 5908 5907 5906 5906 5906 5906 5906 5906 5905 5905 5905 5905 5906 5905 5905 5905 5905 5905 5906 5906 5906 5906 5906
5938 5938 5938 5936 5935 5934 5933 5932 5931 5929 5928 5927 5925 5923 5921 5920 5918 5916 5915 5914 5913 5912 5911 5910 5909 5909 5909 5908 5908 5907 5907 5907 5907 5907 5907 5907 5907 5906 5906 5906 5906 5906 5907 5907 5907 5907 5907 5907 5908
5939 5938 5938 5937 5937 5936 5935 5934 5932 5931 5930 5929 5927 5925 5923 5922 5920 5918 5917 5916 5915 5913 5912 5911 5910 5910 5910 5909 5909 5909 5909 5908 5908 5908 5908 5908 5907 5907 5907 5907 5907 5908 5908 5908 5908 5908 5908 5908 5909
5939 5939 5939 5938 5938 5937 5936 5935 5934 5933 5932 5930 5928 5927 5925 5923 5922 5920 5919 5917 5916 5915 5913 5912 5912 5911 5911 5910 5910 5910 5910 5909 5909 5908 5908 5908 5908 5908 5908 5908 5908 5909 5909 5909 5909 5909 5909 5909 5910
5939 5939 5939 5939 5939 5938 5937 5937 5936 5935 5933 5931 5930 5928 5926 5925 5924 5922 5921 5919 5917 5916 5914 5913 5912 5912 5911 5911 5911 5910 5910 5910 5909 5909 5909 5909 5909 5909 5909 5909 5909 5909 5909 5910 5910 5910 5910 5910 5910
5939 5940 5940 5940 5939 5939 5939 5939 5937 5936 5934 5933 5931 5929 5928 5927 5925 5924 5922 5920 5919 5917 5916 5914 5913 5912 5912 5912 5911 5911 5910 5910 5910 5910 5910 5910 5910 5909 5909 5910 5910 5910 5910 5910 5910 5910 5910 5911 5911
5939 5941 5941 5941 5940 5940 5941 5941 5939 5937 5936 5934 5932 5931 5929 5928 5926 5925 5923 5921 5920 5918 5917 5915 5914 5914 5913 5912 5912 5911 5911 5911 5910 5910 5910 5910 5910 5910 5910 5910 5910 5910 5910 5910 5910 5910 5910 5910 5910
5940 5941 5941 5941 5941 5941 5941 5941 5939 5938 5936 5935 5934 5932 5931 5929 5928 5926 5924 5922 5920 5919 5918 5916 5915 5914 5914 5913 5913 5912 5911 5911 5911 5910 5910 5910 5910 5910 5910 5910 5910 5909 5909 5910 5910 5910 5910 5910 5910
5940 5940 5941 5941 5941 5941 5941 5941 5940 5938 5937 5936 5935 5933 5932 5930 5928 5926 5925 5923 5921 5920 5918 5917 5916 5915 5914 5913 5913 5912 5912 5911 5911 5910 5910 5910 5910 5910 5910 5910 5909 5909 5909 5909 5910 5910 5909 5909 5909
5937 5939 5940 5940 5940 5941 5941 5940 5940 5938 5937 5936 5935 5934 5932 5931 5929 5927 5925 5924 5922 5920 5918 5917 5916 5915 5914 5913 5913 5912 5912 5911 5911 5910 5910 5910 5910 5910 5910 5909 5909 5909 5909 5909 5909 5909 5909 5908 5908
5935 5937 5938 5938 5939 5940 5940 5940 5939 5938 5938 5937 5936 5934 5933 5931 5930 5928 5926 5924 5922 5920 5918 5917 5917 5916 5914 5913 5913 5912 5912 5911 5911 5910 5910 5910 5910 5909 5909 5909 5909 5908 5908 5908 5908 5908 5907 5907 5906
5933 5935 5936 5937 5938 5939 5940 5940 5939 5938 5937 5937 5936 5935 5933 5932 5930 5928 5926 5924 5922 5920 5919 5917 5916 5915 5914 5913 5913 5912 5911 5911 5910 5910 5909 5909 5909 5909 5908 5908 5908 5907 5907 5907 5906 5906 5905 5905 5905
5931 5933 5934 5935 5937 5938 5939 5942 5939 5938 5937 5936 5936 5934 5933 5932 5930 5928 5926 5924 5922 5920 5918 5917 5916 5915 5914 5913 5912 5911 5910 5910 5909 5909 5908 5908 5908 5908 5907 5907 5906 5906 5906 5905 5905 5904 5903 5903 5902
5928 5930 5931 5933 5935 5937 5938 5940 5940 5937 5936 5936 5935 5934 5933 5931 5929 5927 5925 5923 5921 5920 5918 5916 5915 5914 5913 5912 5911 5910 5909 5908 5908 5908 5907 5907 5907 5906 5906 5905 5905 5904 5904 5903 5902 5902 5901 5900 5899
5924 5927 5929 5930 5932 5935 5936 5938 5939 5936 5935 5935 5934 5933 5931 5930 5929 5926 5924 5922 5921 5919 5917 5915 5914 5912 5911 5910 5910 5909 5908 5907 5907 5906 5906 5905 5905 5905 5904 5904 5903 5902 5902 5901 5900 5899 5898 5897 5896
5921 5925 5928 5929 5931 5933 5933 5934 5936 5934 5933 5933 5932 5931 5930 5929 5928 5926 5924 5922 5920 5918 5916 5914 5913 5911 5910 5909 5908 5907 5907 5906 5905 5905 5904 5904 5903 5903 5902 5901 5901 5900 5899 5898 5897 5896 5895 5893 5892
5918 5922 5926 5929 5930 5931 5930 5931 5933 5932 5931 5931 5930 5929 5929 5928 5926 5925 5923 5921 5919 5917 5915 5913 5912 5910 5909 5908 5907 5906 5905 5904 5904 5903 5902 5902 5901 5900 5899 5899 5898 5897 5896 5895 5894 5893 5891 5890 5889
5913 5917 5921 5924 5926 5928 5929 5929 5930 5929 5929 5928 5928 5927 5927 5926 5925 5923 5922 5920 5918 5916 5915 5913 5911 5909 5908 5907 5906 5904 5903 5902 5901 5901 5900 5899 5899 5898 5897 5896 5896 5895 5893 5892 5891 5890 5888 5887 5886
5910 5913 5916 5920 5922 5925 5926 5927 5928 5927 5927 5926 5926 5925 5925 5924 5923 5921 5920 5918 5917 5915 5913 5912 5910 5909 5907 5905 5904 5903 5901 5900 5899 5899 5898 5897 5896 5896 5895 5894 5893 5892 5891 5890 5888 5887 5886 5884 5883
5905 5909 5912 5915 5918 5922 5925 5927 5924 5924 5924 5924 5924 5924 5923 5922 5921 5920 5918 5917 5915 5914 5912 5910 5909 5907 5906 5904 5903 5901 5900 5899 5898 5897 5896 5895 5894 5893 5893 5892 5891 5890 5889 5888 5886 5885 5883 5882 5880
5900 5904 5908 5911 5914 5917 5921 5924 5920 5921 5921 5921 5921 5921 5921 5920 5919 5918 5917 5915 5914 5912 5910 5909 5907 5906 5904 5903 5901 5900 5898 5897 5896 5895 5894 5893 5892 5891 5890 5890 5889 5888 5887 5885 5884 5883 5881 5879 5877